Regional Weather Roundup
Issued by NWS

Home | Current Version | Previous Version | Graphics & Text | Print | Product List | Glossary On
Versions: 1 2 3 4 5 6 7 8 9 10 11 12 13 14 15 16 17 18 19 20 21 22 23 24 25 26 27 28 29 30 31 32 33 34 35 36 37 38 39 40 41 42 43 44 45 46 47 48 49 50
000
ASUS43 KLSX 062307
RWRMO

WEATHER SUMMARY FOR MISSOURI
NATIONAL WEATHER SERVICE SPRINGFIELD MO
600 PM CDT MON JUL 06 2015

NOTE: "FAIR" INDICATES FEW OR NO CLOUDS BELOW 12,000 FEET WITH NO
       SIGNIFICANT WEATHER AND/OR OBSTRUCTIONS TO VISIBILITY.
       CURRENT SKY AND/OR WEATHER CONDITIONS ARE NOT AVAILABLE FOR
       CHILLICOTHE AND FARMINGTON.

MOZ001>031-035>038-043-044-053-054-070000-
...NORTHERN AND WESTERN MISSOURI...

CITY           SKY/WX    TMP DP  RH WIND       PRES   REMARKS
KANSAS CTY INT TSTM      72  71  97 SW8       29.90R FOG
KANSAS C DTWN  TSTM      72  71  97 NE16      29.86R FOG
LEE`S SUMMIT   TSTM      76  69  79 NW16      29.89R
ST JOSEPH      LGT RAIN  73  71  93 MISG      29.87R
CHILLICOTHE      N/A     74  72  93 S9G22     29.87S
KIRKSVILLE     LGT RAIN  77  74  90 S3        29.86R FOG

$$
MOZ066>068-077>081-088>096-101>105-070000-
...SOUTHWEST MISSOURI...

CITY           SKY/WX    TMP DP  RH WIND       PRES   REMARKS
SPRINGFIELD    PTSUNNY   83  72  69 S14       29.93R
JOPLIN         MOSUNNY   84  74  71 S14G21    29.90R HX  91

$$
MOZ032>034-039>042-045>050-055>058-069>072-070000-
...CENTRAL MISSOURI...

CITY           SKY/WX    TMP DP  RH WIND       PRES   REMARKS
COLUMBIA       PTSUNNY   84  74  71 S9        29.89R HX  91
JEFFERSON CITY MOSUNNY   86  73  65 S6        29.87R HX  93
ROLLA          SUNNY     84  73  69 SW12      29.92R HX  90
SEDALIA        CLOUDY    84  74  71 S10       29.89R HX  91
WHITEMAN AFB   CLOUDY    82  75  78 S8        29.87R
WARRENSBURG    CLOUDY    82  73  74 S6        29.87R
OSAGE BEACH    MOSUNNY   84  72  65 S8        29.91R

$$
MOZ051-052-059>065-070000-
...EAST CENTRAL MISSOURI...

CITY           SKY/WX    TMP DP  RH WIND       PRES   REMARKS
ST LOUIS INTL  PTSUNNY   84  70  62 S9        29.89F
SPIRIT OF STL  MOSUNNY   84  74  71 S7        29.88F HX  91
ST CHARLES     MOSUNNY   85  71  63 S13       29.87F HX  90

$$
MOZ072>076-082>087-097>100-106>115-070000-
...SOUTH CENTRAL AND SOUTHEAST MISSOURI...

CITY           SKY/WX    TMP DP  RH WIND       PRES   REMARKS
CAPE GIRARDEAU PTSUNNY   84  74  71 S10       29.94F HX  91
FARMINGTON     PTSUNNY   84  73  70 S14G23    29.97F HX  91
POPLAR BLUFF   PTSUNNY   84  74  71 S9        29.93F HX  91
WEST PLAINS    PTSUNNY   82  71  69 S9G20     29.97F

$$


USA.gov is the U.S. government's official web portal to all federal, state and local government web resources and services.